505  
ASUS41 KAKQ 161615  
RWRAKQ  
 
REGIONAL WEATHER ROUNDUP  
NATIONAL WEATHER SERVICE WAKEFIELD VA  
1200 PM EDT TUE JUL 16 2019  
 
NOTE: "FAIR" INDICATES FEW OR NO CLOUDS BELOW 12,000 FEET WITH NO  
SIGNIFICANT WEATHER AND/OR S TO VISIBILITY
. * = DENOTES  
STATION MAY NOT REPORT PRECIPITATION (E.G., RAIN,SNOW,ETC.),
 
THUNDER OR FOG.  
 
VAZ042-051-052>054-056-161700-  
NORTHERN VIRGINIA  
 
CITY SKY/WX TMP DP RH WIND PRES REMARKS
 
WASH NATIONAL FAIR 88 72 58 SE5 30.09S  
DULLES FAIR 89 67 47 VRB5 30.10S  
FORT BELVOIR FAIR 90 70 51 S3 30.09S HX 95  
QUANTICO PTSUNNY 88 76 67 S6 30.10R HX 99  
FREDERICKSBRG* FAIR 90 76 64 CALM 30.08S HX 102  
STAFFORD* FAIR 95 76 54 W6 30.13S HX 108  
WARRENTON FAIR 89 71 53 CALM 30.10S HX 95  
CULPEPER* FAIR 89 72 57 W3 30.11S HX 96  
MANASSAS* FAIR 90 71 53 VRB3 30.10S HX 96  
LEESBURG* FAIR 91 70 49 SW3 30.12S HX 97  
WINCHESTER FAIR 88 70 55 CALM 30.13S  
FRONT ROYAL* FAIR 86 73 66 S5 30.11F  
LURAY* FAIR 86 72 62 CALM 30.13F  

 
 
VAZ048-049-060>072-079>083-161700-  
CENTRAL AND SOUTH CENTRAL VIRGINIA  
 
CITY SKY/WX TMP DP RH WIND PRES REMARKS
 
RICHMOND CLOUDY 91 73 55 SW6 30.10R HX 99  
CHESTERFIELD* FAIR 90 74 59 S7 30.11R HX 99  
PETERSBURG* FAIR 90 73 57 W6 30.11S HX 97  
HANOVER FAIR 89 71 55 W3 30.12R HX 95  
TAPPAHANNOCK* FAIR 89 75 63 SW6 30.10S HX 98  
QUINTON* FAIR 88 75 64 CALM 30.10R HX 98  
CHARLOTTSVILLE FAIR 90 71 53 VRB6 30.12S HX 96  
GORDONSVILLE* FAIR 87 74 64 CALM 30.11S HX 95  
ORANGE* FAIR 86 72 62 CALM 30.11F  
LOUISA* FAIR 87 73 62 S5 30.16S HAZE  
BUMPASS* FAIR 86 72 61 W5 30.11S  
FARMVILLE* FAIR 88 75 64 S5 30.11R HX 98  
CREWE* FAIR 89 75 63 CALM 30.12R HX 99  
FORT PICKETT* FAIR 89 75 62 SW7 30.12R HX 98  
CHASE CITY* FAIR 89 72 56 CALM 30.12S HX 96  
CLARKSVILLE* FAIR 86 73 66 CALM 30.12S  
SOUTH HILL* FAIR N/A N/A N/A W7 30.17S  
LAWRENCEVILLE* FAIR 89 74 61 SW5 30.12S HX 97  
EMPORIA* FAIR 89 76 65 S6 30.12S HX 100  

 
 
VAZ088>098-161700-  
SOUTHEAST VIRGINIA  
 
CITY SKY/WX TMP DP RH WIND PRES REMARKS
 
NORFOLK FAIR 90 76 63 NE5 30.10R HX 101  
VIRGINIA BEACH PTSUNNY 91 71 51 VRB3 30.09S HX 97  
NORFOLK NAVAL PTSUNNY 90 76 63 N5 30.11S HX 101  
WEST POINT* FAIR 89 76 65 SW3 30.11S HX 101  
SALUDA* FAIR 88 80 77 E5 30.09S HX 104  
NEWPORT NEWS FAIR 90 75 61 SW8 30.10S HX 100  
LANGLEY AFB MOSUNNY 91 74 56 SW7 30.10S HX 100  
FORT EUSTIS PTSUNNY 89 73 58 SW3 30.08S HX 97  
WILLIAMSBURG* FAIR 91 77 62 CALM 30.11S HX 105  
HR EXEC AP* PTSUNNY 89 75 63 CALM 30.11R HX 99  
FRANKLIN* FAIR 91 75 59 W9 30.11S HX 101  
US460-WAKEFLD FAIR 91 76 61 SW5 30.10S HX 103  

 
 
VAZ020-022-025-037-045-161700-  
WEST CENTRAL AND SOUTHWEST VIRGINIA  
 
CITY SKY/WX TMP DP RH WIND PRES REMARKS
 
STAUNTON* FAIR 88 71 55 SE8 30.16F  
WAYNESBORO* FAIR 85 74 69 CALM 30.16S  
HOT SPRINGS VA FAIR 75 70 83 SW8 30.32S  
LYNCHBURG FAIR 90 70 51 SW7 30.14F HX 95  
DANVILLE FAIR 87 72 60 W6 30.14S  
SOUTH BOSTON* FAIR 90 71 53 CALM 30.12S HX 96  
MARTINSVILLE FAIR 90 73 58 CALM 30.18S HX 98  
ROANOKE FAIR 84 70 62 SW7 30.19R  
BLACKSBURG FAIR 82 74 76 W3 30.26S  
DUBLIN* FAIR 80 71 74 CALM 30.25S  
MARION* FAIR 81 71 71 W7 30.28S  
HILLSVILLE* FAIR 79 70 74 SW5 30.26S  
RICHLANDS* FAIR 80 67 64 W5 30.27S  
WISE* FAIR 81 64 57 SW8 30.26S  
ABINGDON* FAIR 83 68 59 SW7 30.23S  

 
 
MDZ021>025-VAZ099-100-161700-  
SOUTHERN MARYLAND AND THE DELMARVA PENINSULA  
 
CITY SKY/WX TMP DP RH WIND PRES REMARKS
 
PATUXENT RIVER FAIR 87 77 72 E7 30.09R HX 99  
BAY BRIDGE APT FAIR 86 77 74 W3 30.09S HX 97  
LEONARDTOWN FAIR 90 70 51 CALM 30.11S HX 95  
DOVER PTSUNNY 88 74 64 E8 30.09S HX 96  
GEORGETOWN FAIR 90 74 59 W8 30.10S HX 99  
EASTON MOSUNNY 90 75 62 W3 30.13S HX 100  
CAMBRIDGE SUNNY 88 75 66 CALM 30.09S HX 97  
SALISBURY PTSUNNY 88 74 63 S7 30.09F HX 96  
TANGIER FAIR 88 79 74 S6 30.10S HX 102  
OCEAN CITY FAIR 86 74 67 SW8 30.11S  
WALLOPS ISLAND FAIR 88 72 58 S12 30.11S  
ACCOMACK* FAIR 89 74 60 W6 30.10S HX 99  

 
 
NCZ012>017-030>032-161700-  
NORTH CENTRAL AND EASTERN NORTH CAROLINA  
 
CITY SKY/WX TMP DP RH WIND PRES REMARKS
 
ROANOKE RAPIDS FAIR 90 81 74 S8 30.11S HX 108  
RALEIGH PTSUNNY 93 69 45 W5 30.12S HX 98  
ELIZABETH CITY FAIR 91 76 61 S5 30.11R HX 103  
AHOSKIE* FAIR 90 76 63 W6 30.11S HX 102  
EDENTON* FAIR 92 78 65 S5 30.12S HX 107  
CURRITUCK* FAIR 90 76 62 MISG 30.11S HX 102  
KILL DEVIL HLS FAIR 90 73 57 CALM 30.10S HX 97  
MANTEO FAIR 88 76 68 S9 30.12S HX 99  
CAPE HATTERAS FAIR 90 78 68 S6 30.13R HX 104  
TARBORO* NOT AVBL  
GOLDSBORO FAIR 94 74 51 SW6 30.10S HX 103  
WASHINGTON FAIR 93 74 53 S3 30.12R HX 102  
GREENVILLE FAIR 93 73 52 W6 30.13R HX 102  
NEW BERN FAIR 92 75 57 SW8 30.13R HX 103  
WILMINGTON PTSUNNY 91 76 61 VRB3 30.11F HX 103  

 
 
VAZ048-161700-  
ELSEWHERE  
 
CITY SKY/WX TMP DP RH WIND PRES REMARKS
 
HARRISBURG PA N/A 88 32 13 MISG 30.08F  
BALTIMORE FAIR 91 68 46 CALM 30.08F HX 95  
ANNAPOLIS FAIR 88 77 69 SE8 30.09S HX 100  
ANDREWS AFB NOT AVBL  
PHILADELPHIA FAIR 86 65 49 SW12 30.09F  
HENDERSON NC FAIR 90 68 47 SW8 30.12S  
GREENSBORO PTSUNNY 89 71 55 SW7 30.15S HX 95  
ROCKY MOUNT FAIR 95 71 45 SW8 30.11S HX 102  

 
 
VAZ100-161700-  
MARINE  
 
STATION/POSITION TIME TEMP WIND PRES WAVE SWELL
 
AIR SEA DIR/SP/G HT/PER HT/PER  
(UTC) (F) (DEG/KT/KT) (MB) (FT/S) (FT/S)  
CAPE MAY NJ 1530 82 73 160/ 6/ 8 1019.3R  
LEWES DE 1530 83 76 170/ 8/ 12 1019.4R  
15NM E FENWICK I 1550 78 77 140/ 4/ 4 1019.7R 1/11 2/11  
OCEAN-CITY-INLET 1530 81 77 190/ 7/ 9 1020.5R  
WACHAPREAGUE VA 1530 85 85 200/ 6/ 8 1019.1R  
THOMAS POINT MD 1600 82 83 150/ 4/ 5 1020.0R  
GOOSES REEF MD 1554 83 110/ 4/ 4 1020.1S  
COVE POINT MD 1530 83 160/ 4/ 6 1019.6S  
SOLOMONS ISLAND 1530 85 85 100/ 5/ 6 1018.5R  
BISHOPS HEAD MD 1530 210/ 1/ 3 1019.7R  
PINEY POINT MD 1524 CALM / 2 N/A  
CAMBRIDGE MD 1530 1018.8F  
LEWISETTA VA 1530 100/ 5/ 6 1018.9S  
RAPPAHANNOCK LGT 1524 1020.1  
YORK RVR RNG VA 1530 84 140/ 5/ 6 1019.9S  
YORKTOWN VA 1530 84 85 60/ 6/ 6 1018.9S  
JAMESTOWN VA 1554 89 88 1019.7R  
DOMINION TERM VA 1530 140/ 3/ 3 1019.4S  
KIPTOPEKE VA 1524 82 180/ 5/ 6 N/A  
CAPE HENRY VA 1530 86 120/ 8/ 11 1019.2S  
WILLOUBY STN VA 1530 320/ 2/ 3 1018.8R  
S CRANEY ISL VA 1530 88 30/ 4/ 5 1019.0S  
CAPE HENRY BUOY 1600 81 N/A 1/11  
1ST LANDING BUOY 1540 83 130/ 6/ 8 1018.8S  
64NM E OF VA BCH 1550 82 82 160/ 6/ 6 1020.5R 1/10 2/10  
DUCK PIER NC 1524 86 82 210/ 7/ 9 1019.2  
44100 DUCK FRF 1600 83 N/A 1/12  
44056 DUCK FRF 1600 83 N/A 1/11  
OREGON INLET NC 1524 85 83 190/ 10/ 12 1019.9  
HATTERAS NC 1524 86 82 180/ 5/ 8 1020.2  
DIAMOND SHLS NC 1550 84 84 210/ 6/ 8 1020.0R 1/10 2/10  
CAPE LOOKOUT NC 1500 83 160/ 8/ 8 1019.8S  

 
 
 
CLICK HERE TO GO TO PREVIOUS BULLETINS.

The Nexlab VA Page
The Nexlab NC Page
The Nexlab MD Page Main Text Page